Weather History for Taos, NM

Change the Weather History Date:

Tuesday, March 27, 2012

  Actual Average Record
Temperature  
Mean Temperature 49 °F -  
Max Temperature 68 °F 56 °F 68 °F (2012)
Min Temperature 30 °F 23 °F 8 °F (2009)
Degree Days  
Heating Degree Days 16    
Moisture  
Dew Point 13 °F    
Average Humidity 26    
Maximum Humidity 44    
Minimum Humidity 11    
Precipitation  
Precipitation 0.00 in - - ()
Sea Level Pressure  
Sea Level Pressure 30.15 in    
Wind  
Wind Speed 5 mph (SSW)    
Max Wind Speed 16 mph    
Max Gust Speed 23 mph    
Visibility 10 miles    
Events      
Averages and records for this station are not official NWS values.
T = Trace of Precipitation, MM = Missing Value Source: NWS Daily Summary

Daily Weather History Graph

Daily Weather History Graph

Search for Another Location

Airport:

Trip Planner

Search our weather history database for the weather conditions in past years. The results will help you decide how hot, cold, wet, or windy it might be!

Date:

Astronomy

Mar. 27, 2012 Rise Set
Actual Time 6:55 AM MDT 7:21 PM MDT
Civil Twilight 6:29 AM MDT 7:46 PM MDT
Nautical Twilight 5:59 AM MDT 8:17 PM MDT
Astronomical Twilight 5:28 AM MDT 8:48 PM MDT
Moon 9:36 AM MDT (3/27) No Moon Set
Length of Visible Light 13h 17m
Length of Day
12h 25m
Waxing Crescent, 22% of the Moon is Illuminated
Mar 27
Waxing Crescent
Mar 30
First Quarter
Apr 6
Full
Apr 13
Last Quarter
Apr 21
New

Hourly Weather History & Observations

Time (MDT) Temp. Windchill Dew Point Humidity Pressure Visibility Wind Dir Wind Speed Gust Speed Precip Events Conditions
12:15 AM 46.4 °F 43.5 °F 10.4 °F 23% 30.10 in 10.0 mi West 5.8 mph - N/A   Clear
12:35 AM 39.2 °F 35.9 °F 8.6 °F 28% 30.11 in 10.0 mi East 4.6 mph - N/A   Clear
12:55 AM 35.6 °F - 8.6 °F 33% 30.11 in 10.0 mi Calm Calm - N/A   Clear
1:15 AM 46.4 °F - 17.6 °F 32% 30.11 in 10.0 mi Calm Calm - N/A   Clear
1:35 AM 37.4 °F 32.1 °F 8.6 °F 30% 30.12 in 10.0 mi ESE 6.9 mph - N/A   Clear
1:55 AM 41.0 °F 36.4 °F 12.2 °F 31% 30.12 in 10.0 mi SSW 6.9 mph - N/A   Clear
2:15 AM 35.6 °F 28.0 °F 8.6 °F 33% 30.12 in 10.0 mi East 10.4 mph - N/A   Clear
2:35 AM 35.6 °F 30.7 °F 12.2 °F 38% 30.12 in 10.0 mi ESE 5.8 mph - N/A   Clear
2:55 AM 35.6 °F 32.8 °F 10.4 °F 35% 30.12 in 10.0 mi SSE 3.5 mph - N/A   Clear
3:15 AM 37.4 °F 32.1 °F 12.2 °F 36% 30.12 in 10.0 mi SW 6.9 mph - N/A   Clear
3:35 AM 39.2 °F - 12.2 °F 33% 30.13 in 10.0 mi Calm Calm - N/A   Clear
3:55 AM 37.4 °F 34.9 °F 10.4 °F 33% 30.13 in 10.0 mi SSE 3.5 mph - N/A   Clear
4:15 AM 39.2 °F 35.0 °F 12.2 °F 33% 30.13 in 10.0 mi SSW 5.8 mph - N/A   Clear
4:35 AM 37.4 °F 30.3 °F 10.4 °F 33% 30.13 in 10.0 mi SW 10.4 mph - N/A   Clear
4:55 AM 35.6 °F 30.7 °F 12.2 °F 38% 30.14 in 10.0 mi South 5.8 mph - N/A   Clear
5:15 AM 35.6 °F 29.9 °F 12.2 °F 38% 30.14 in 10.0 mi SE 6.9 mph - N/A   Clear
5:35 AM 35.6 °F 29.9 °F 12.2 °F 38% 30.15 in 10.0 mi SSE 6.9 mph - N/A   Clear
5:55 AM 32.0 °F 24.8 °F 10.4 °F 41% 30.15 in 10.0 mi East 8.1 mph - N/A   Clear
6:15 AM 30.2 °F 25.4 °F 6.8 °F 37% 30.16 in 10.0 mi East 4.6 mph - N/A   Clear
6:35 AM 33.8 °F 27.7 °F 12.2 °F 41% 30.16 in 10.0 mi East 6.9 mph - N/A   Clear
6:55 AM 32.0 °F 25.6 °F 12.2 °F 44% 30.17 in 10.0 mi East 6.9 mph - N/A   Clear
7:15 AM 33.8 °F - 12.2 °F 41% 30.18 in 10.0 mi Calm Calm - N/A   Clear
7:35 AM 33.8 °F - 12.2 °F 41% 30.19 in 10.0 mi Calm Calm - N/A   Clear
7:55 AM 35.6 °F - 14.0 °F 41% 30.19 in 10.0 mi Calm Calm - N/A   Clear
8:15 AM 42.8 °F 41.1 °F 17.6 °F 36% 30.20 in 10.0 mi North 3.5 mph - N/A   Clear
8:35 AM 44.6 °F - 17.6 °F 34% 30.20 in 10.0 mi Calm Calm - N/A   Clear
8:55 AM 46.4 °F - 15.8 °F 29% 30.20 in 10.0 mi Calm Calm - N/A   Clear
9:15 AM 48.2 °F - 15.8 °F 27% 30.21 in 10.0 mi SSW 3.5 mph - N/A   Clear
9:35 AM 48.2 °F - 17.6 °F 30% 30.21 in 10.0 mi Calm Calm - N/A   Clear
9:55 AM 51.8 °F - 17.6 °F 26% 30.21 in 10.0 mi SW 4.6 mph - N/A   Clear
10:15 AM 53.6 °F - 15.8 °F 22% 30.21 in 10.0 mi Calm Calm - N/A   Clear
10:35 AM 55.4 °F - 17.6 °F 23% 30.21 in 10.0 mi SW 4.6 mph - N/A   Clear
10:55 AM 55.4 °F - 17.6 °F 23% 30.21 in 10.0 mi West 3.5 mph - N/A   Clear
11:15 AM 57.2 °F - 17.6 °F 21% 30.21 in 10.0 mi South 12.7 mph - N/A   Clear
11:35 AM 57.2 °F - 17.6 °F 21% 30.21 in 10.0 mi Calm Calm - N/A   Clear
11:55 AM 59.0 °F - 17.6 °F 20% 30.20 in 10.0 mi SW 4.6 mph - N/A   Clear
12:15 PM 59.0 °F - 15.8 °F 19% 30.19 in 10.0 mi NNW 5.8 mph - N/A   Clear
12:35 PM 60.8 °F - 17.6 °F 19% 30.19 in 10.0 mi WSW 4.6 mph - N/A   Clear
12:55 PM 62.6 °F - 6.8 °F 11% 30.18 in 10.0 mi West 4.6 mph - N/A   Clear
1:15 PM 62.6 °F - 8.6 °F 12% 30.17 in 10.0 mi Calm Calm - N/A   Clear
1:35 PM 64.4 °F - 10.4 °F 12% 30.16 in 10.0 mi SW 8.1 mph - N/A   Clear
1:55 PM 64.4 °F - 8.6 °F 11% 30.16 in 10.0 mi SW 5.8 mph 17.3 mph N/A   Clear
2:15 PM 66.2 °F - 14.0 °F 13% 30.15 in 10.0 mi WNW 5.8 mph 18.4 mph N/A   Clear
2:35 PM 66.2 °F - 15.8 °F 14% 30.15 in 10.0 mi SSW 9.2 mph 18.4 mph N/A   Clear
2:55 PM 68.0 °F - 14.0 °F 12% 30.14 in 10.0 mi South 4.6 mph - N/A   Clear
3:15 PM 68.0 °F - 12.2 °F 12% 30.14 in 10.0 mi West 8.1 mph 20.7 mph N/A   Clear
3:35 PM 68.0 °F - 12.2 °F 12% 30.14 in 10.0 mi West 6.9 mph 19.6 mph N/A   Clear
3:55 PM 66.2 °F - 10.4 °F 11% 30.13 in 10.0 mi West 4.6 mph 17.3 mph N/A   Clear
4:15 PM 68.0 °F - 12.2 °F 12% 30.12 in 10.0 mi SW 10.4 mph 23.0 mph N/A   Clear
4:35 PM 66.2 °F - 14.0 °F 13% 30.12 in 10.0 mi SW 12.7 mph 21.9 mph N/A   Clear
4:55 PM 68.0 °F - 12.2 °F 12% 30.12 in 10.0 mi SW 16.1 mph 20.7 mph N/A   Clear
5:15 PM 66.2 °F - 12.2 °F 12% 30.12 in 10.0 mi West 8.1 mph 17.3 mph N/A   Clear
5:35 PM 66.2 °F - 12.2 °F 12% 30.12 in 10.0 mi WSW 6.9 mph 16.1 mph N/A   Clear
5:55 PM 66.2 °F - 12.2 °F 12% 30.12 in 10.0 mi WSW 12.7 mph 20.7 mph N/A   Clear
6:15 PM 64.4 °F - 12.2 °F 13% 30.12 in 10.0 mi SW 12.7 mph 20.7 mph N/A   Clear
6:35 PM 64.4 °F - 10.4 °F 12% 30.12 in 10.0 mi WSW 9.2 mph 16.1 mph N/A   Clear
6:55 PM 62.6 °F - 10.4 °F 13% 30.13 in 10.0 mi West 10.4 mph - N/A   Clear
7:15 PM 59.0 °F - 6.8 °F 13% 30.13 in 10.0 mi West 11.5 mph - N/A   Clear
7:35 PM 55.4 °F - 3.2 °F 12% 30.14 in 10.0 mi WNW 9.2 mph - N/A   Clear
7:55 PM 51.8 °F - 3.2 °F 14% 30.14 in 10.0 mi NW 6.9 mph - N/A   Clear
8:15 PM 51.8 °F - 6.8 °F 16% 30.15 in 10.0 mi NNW 4.6 mph - N/A   Clear
8:35 PM 51.8 °F - 6.8 °F 16% 30.16 in 10.0 mi NNW 3.5 mph - N/A   Clear
8:55 PM 46.4 °F 42.9 °F 1.4 °F 16% 30.16 in 10.0 mi NNE 6.9 mph - N/A   Clear
9:15 PM 44.6 °F 40.7 °F 1.4 °F 17% 30.17 in 10.0 mi NE 6.9 mph - N/A   Clear
9:35 PM 44.6 °F 39.7 °F 5.0 °F 20% 30.17 in 10.0 mi NE 9.2 mph - N/A   Clear
9:55 PM 39.2 °F 34.2 °F 1.4 °F 21% 30.17 in 10.0 mi East 6.9 mph - N/A   Clear
10:15 PM 41.0 °F 36.4 °F 10.4 °F 29% 30.17 in 10.0 mi ESE 6.9 mph - N/A   Clear
10:35 PM 37.4 °F 32.8 °F 3.2 °F 24% 30.17 in 10.0 mi NE 5.8 mph - N/A   Clear
10:55 PM 39.2 °F - 12.2 °F 33% 30.18 in 10.0 mi Calm Calm - N/A   Clear
11:15 PM 39.2 °F 37.0 °F 8.6 °F 28% 30.18 in 10.0 mi North 3.5 mph - N/A   Clear
11:35 PM 35.6 °F 31.7 °F 8.6 °F 33% 30.18 in 10.0 mi North 4.6 mph - N/A   Clear
11:55 PM 35.6 °F 29.9 °F 8.6 °F 33% 30.18 in 10.0 mi North 6.9 mph - N/A   Clear